{"data":{"norad_id":69812,"epoch":"2026-09-19T20:58:41.179872Z","epoch_age_seconds":75739,"freshness":"FRESH","line1":"1 69812U 26153N   26262.87408773 -.01799611  00000+0 -12834+1 0  9998","line2":"2 69812  88.9974 351.5120 0008128 317.1707  42.8838 14.01653787 10977","mean_motion":14.01653787,"eccentricity":0.0008128,"inclination_deg":88.9974,"raan_deg":351.512,"arg_perigee_deg":317.1707,"mean_anomaly_deg":42.8838,"bstar":-1.2834,"rev_number":1097,"period_min":102.73578349773,"perigee_km":882.16802120838,"apogee_km":893.97997380593,"semimajor_km":7266.2109975072,"source":"CELESTRAK","updated_at":"2026-09-20T09:00:25.122508Z"}}